Weather observations for the past three days for
Amarillo, Amarillo International Airport
Imperial (Metric)
Date Time (cdt) Wind (mph) Vis. (mi.) Weather Sky Cond. Temperature (ºF) Relative Humidity Wind Chill (°F) Heat Index (°F) Pressure Precipitation (in)
Air Dwpt 6 hour altimeter (in) sea level (mb) 1 hr 3 hr 6 hr
Max. Min.
15 21:53 SE 14 10.00 Fair CLR 79 63 58% 81 29.86 1005.3
15 20:53 S 13 10.00 Fair CLR 82.9 62.1 49% 84 29.85 1004.9
15 19:53 S 15 10.00 Fair CLR 88 59 38% 87 29.85 1005.0
15 18:53 S 17 G 28 10.00 Fair CLR 89.1 61 90 82 39% 89 29.86 1005.3
15 17:53 S 16 10.00 A Few Clouds FEW060 FEW080 89.1 62.1 41% 89 29.88 1005.8
15 16:53 S 15 10.00 Fair CLR 90 63 41% 91 29.9 1006.6
15 15:53 S 14 G 24 10.00 Partly Cloudy SCT055 88 63 43% 89 29.93 1007.7
15 14:53 S 15 G 23 10.00 Mostly Cloudy SCT047 BKN060 87.1 64.9 48% 89 29.94 1008.4
15 13:53 S 14 10.00 Partly Cloudy FEW045 SCT060 SCT120 87.1 64.9 48% 89 29.97 1009.0
15 12:53 S 16 G 25 10.00 Partly Cloudy FEW038 SCT110 84.9 30.9 84.9 66.9 14% 82 29.99 1010.0
15 11:53 SW 14 G 24 10.00 Fair CLR 82.9 -20.9 1% 80 30 1010.5
15 10:53 SW 16 10.00 Fair CLR 82 33.1 17% 80 30 1010.7
15 09:53 SW 15 10.00 A Few Clouds FEW100 77 50 39% 78 30.01 1010.9
15 08:53 SW 18 10.00 A Few Clouds FEW110 73.9 55 52% 30.01 1010.5
15 07:53 SW 9 10.00 Mostly Cloudy BKN110 68 55 63% 29.99 1010.1
15 06:53 S 15 10.00 Fair CLR 68 54 69.1 66 61% 29.98 1009.5 0.2
15 05:53 S 17 10.00 Fair CLR 68 55 63% 29.99 1009.5
15 04:53 S 17 10.00 Fair CLR 66.9 54 63% 30 1010.0
15 03:53 S 14 10.00 Fair CLR 66.9 53.1 61% 30.02 1010.5 0.2
15 02:53 SE 10 9.00 Light Rain FEW060 BKN090 OVC120 66.9 53.1 61% 30.08 1012.7 0.14
15 01:53 SW 25 G 32 10.00 Rain and Breezy BKN090 OVC110 68 54 61% 30.14 1014.7 0.06
15 00:53 W 7 10.00 Light Rain BKN080 OVC100 69.1 55 88 66.9 61% 30.14 1014.8 0.14 0.28
14 23:53 SW 10 5.00 Thunderstorm in Vicinity Rain FEW055 BKN075 OVC100 69.1 55 61% 30.14 1015.0 0.01
14 22:53 NW 16 G 29 10.00 Thunderstorm Light Rain FEW050 BKN090 OVC110 68 55.9 65% 30.1 1013.7 0.13
14 21:53 W 17 G 26 10.00 Thunderstorm in Vicinity FEW036 OVC050 72 60.1 66% 30.1 1013.7
14 20:53 SE 10 10.00 Fair CLR 82.9 61 48% 83 30.04 1011.1
14 19:53 SE 17 10.00 Fair CLR 86 60.1 42% 86 30.01 1010.3
14 18:53 SE 20 G 25 10.00 Fair CLR 88 59 93.9 88 38% 87 29.97 1009.1
14 17:53 S 18 10.00 Fair CLR 89.1 60.1 38% 89 30 1010.0
14 16:53 SE 20 G 29 10.00 A Few Clouds FEW070 91.9 59 33% 91 30.01 1010.1
14 15:53 SE 17 G 24 10.00 A Few Clouds FEW060 91.9 61 36% 92 30.02 1010.4
14 14:53 S 12 G 22 10.00 Partly Cloudy SCT060 93 60.1 33% 93 30.05 1011.2
14 13:53 S 9 G 21 10.00 Fair CLR 91.9 60.1 34% 92 30.07 1011.6
14 12:53 S 12 10.00 Fair CLR 91 61 91 71.1 37% 91 30.08 1012.1
14 11:53 S 9 10.00 Fair CLR 89.1 63 42% 90 30.08 1012.2
14 10:53 S 13 10.00 Fair CLR 86 64 48% 87 30.08 1012.3
14 09:53 S 9 10.00 Fair CLR 82 64.9 56% 84 30.09 1013.1
14 08:53 S 15 G 24 10.00 Fair CLR 78.1 64.9 64% 80 30.08 1012.6
14 07:53 S 17 10.00 Fair CLR 73.9 64.9 74% 30.06 1011.6
14 06:53 S 13 10.00 Fair CLR 71.1 64.9 82 70 81% 30.05 1011.5
14 05:53 S 10 10.00 Fair CLR 71.1 64 79% 30.05 1011.3
14 04:53 SE 10 10.00 Fair CLR 71.1 63 76% 30.06 1011.7
14 03:53 SE 15 10.00 Fair CLR 73 61 66% 30.05 1011.1
14 02:53 E 16 10.00 Fair CLR 77 64.9 66% 79 30.07 1011.5
14 01:53 E 10 10.00 Fair CLR 79 57.9 49% 80 30.06 1011.2
14 00:53 S 16 G 24 10.00 Fair CLR 80.1 53.1 95 75.9 39% 80 30.01 1009.7 0.01
13 23:53 S 17 10.00 Fair CLR 81 50 34% 80 29.98 1008.8
13 22:53 S 14 10.00 A Few Clouds FEW120 82.9 48.9 31% 81 30.01 1009.7
13 21:53 NE 32 G 45 10.00 Mostly Cloudy and Windy SCT055 BKN110 78.1 54 43% 79 30.04 1011.2 0.01 0.01
13 20:53 NW 21 G 32 10.00 Thunderstorm and Breezy OVC080 79 55 44% 80 30.08 1012.9
13 19:53 S 12 10.00 Fair CLR 91.9 57.9 32% 91 29.97 1008.8
13 18:53 S 18 G 24 10.00 Fair CLR 95 55.9 98.1 91.9 27% 93 29.96 1008.3
13 17:53 S 21 G 28 10.00 Fair and Breezy CLR 97 60.1 29% 97 29.96 1008.2
13 16:53 S 20 G 31 10.00 Fair CLR 98.1 59 27% 98 29.98 1008.7
13 15:53 S 21 G 29 10.00 Fair and Breezy CLR 98.1 62.1 31% 99 29.99 1009.1
13 14:53 S 18 G 26 10.00 Fair CLR 97 62.1 32% 98 30.01 1009.6
13 13:53 S 20 10.00 Fair CLR 95 63 35% 96 30.02 1010.3
13 12:53 S 14 G 23 10.00 Fair CLR 91.9 64.9 91.9 69.1 41% 94 30.04 1010.9
13 11:53 S 14 10.00 Fair CLR 89.1 66 47% 92 30.05 1011.3
13 10:53 SW 14 10.00 Fair CLR 84.9 64.9 51% 87 30.05 1011.5
13 09:53 S 17 10.00 Fair CLR 81 64.9 58% 83 30.06 1011.9
13 08:53 S 15 10.00 Fair CLR 77 64 64% 79 30.04 1011.1
13 07:53 S 15 10.00 Fair CLR 72 64 76% 30.02 1010.8
13 06:53 S 15 10.00 Fair CLR 69.1 63 73 69.1 81% 30.01 1010.5
13 05:53 S 14 10.00 Fair CLR 69.1 63 81% 30 1010.1
13 04:53 S 13 10.00 Fair CLR 70 63 79% 30 1010.1
13 03:53 S 12 10.00 Fair CLR 71.1 63 76% 30.01 1010.2
13 02:53 S 13 10.00 Fair CLR 72 64 76% 30 1009.9
13 01:53 S 14 10.00 Fair CLR 72 64 76% 30 1010.0
13 00:53 S 12 10.00 Fair CLR 73 64.9 89.1 73 76% 30.01 1010.4
12 23:53 S 14 10.00 Fair CLR 73.9 66 76% 30.01 1010.6
12 22:53 S 14 10.00 Fair CLR 75.9 66 72% 77 30.01 1010.8
Date Time (cdt) Wind (mph) Vis. (mi.) Weather Sky Cond. Air Dwpt Max. Min. Relative Humidity Wind Chill (°F) Heat Index (°F) altimeter (in) sea level (mb) 1 hr 3 hr 6 hr
6 hour
Temperature (ºF) Pressure Precipitation (in)